Algona, IA

11:07 AM CDT on April 27, 2017 (GMT -0500)
Algona Municipal

Weather History for KAXA - April, 2013

Change the Weather History Date:

Wednesday, April 17, 2013

  Actual Average Record
Temperature  
Mean Temperature 37 °F -  
Max Temperature 39 °F 56 °F 78 °F (2004)
Min Temperature 35 °F 37 °F 24 °F (1997)
Degree Days  
Heating Degree Days 28    
Moisture  
Dew Point 36 °F    
Average Humidity 92    
Maximum Humidity 100    
Minimum Humidity 75    
Precipitation  
Precipitation 0.71 in - - ()
Sea Level Pressure  
Sea Level Pressure 30.02 in    
Wind  
Wind Speed 13 mph (NE)    
Max Wind Speed 25 mph    
Max Gust Speed 33 mph    
Visibility 7 miles    
Events Rain    
Averages and records for this station are not official NWS values.
T = Trace of Precipitation, MM = Missing Value Source: NWS Daily Summary

Daily Weather History Graph

Daily Weather History Graph

Search for Another Location

Airport or City:

Trip Planner

Search our weather history database for the weather conditions in past years. The results will help you decide how hot, cold, wet, or windy it might be!

Date:

Astronomy

Apr. 17, 2013 Rise Set
Actual Time 6:31 AM CDT 8:02 PM CDT
Civil Twilight 6:01 AM CDT 8:32 PM CDT
Nautical Twilight 5:25 AM CDT 9:08 PM CDT
Astronomical Twilight 4:47 AM CDT 9:46 PM CDT
Moon 11:43 AM CDT (4/17) 1:43 AM CDT (4/17)
Length of Visible Light 14h 30m
Length of Day
13h 30m
Waxing Crescent, 42% of the Moon is Illuminated
Apr 17
Waxing Crescent
Apr 18
First Quarter
Apr 25
Full
May 2
Last Quarter
May 9
New

Hourly Weather History & Observations

Time (CDT) Temp. Windchill Dew Point Humidity Pressure Visibility Wind Dir Wind Speed Gust Speed Precip Events Conditions
12:15 AM 37.4 °F 29.8 °F 33.8 °F 87% 30.23 in 10.0 mi NNE 11.5 mph - N/A   Overcast
12:35 AM 37.4 °F 30.3 °F 33.8 °F 87% 30.23 in 10.0 mi NE 10.4 mph - N/A   Overcast
12:55 AM 37.4 °F 30.8 °F 33.8 °F 87% 30.24 in 10.0 mi NNE 9.2 mph - N/A   Overcast
1:15 AM 37.4 °F 30.8 °F 33.8 °F 87% 30.24 in 10.0 mi NNE 9.2 mph - N/A   Overcast
1:35 AM 37.4 °F 30.8 °F 33.8 °F 87% 30.24 in 10.0 mi NE 9.2 mph - N/A   Overcast
1:55 AM 37.4 °F 30.3 °F 33.8 °F 87% 30.23 in 10.0 mi NE 10.4 mph - N/A   Overcast
2:15 AM 37.4 °F 29.8 °F 33.8 °F 87% 30.23 in 10.0 mi NE 11.5 mph - N/A   Overcast
2:35 AM 37.4 °F 30.3 °F 33.8 °F 87% 30.22 in 10.0 mi NE 10.4 mph - N/A   Overcast
2:55 AM 37.4 °F 31.4 °F 33.8 °F 87% 30.23 in 10.0 mi NE 8.1 mph - N/A   Overcast
3:15 AM 37.4 °F 29.8 °F 33.8 °F 87% 30.21 in 10.0 mi NNE 11.5 mph - N/A   Overcast
3:35 AM 37.4 °F 30.3 °F 33.8 °F 87% 30.19 in 10.0 mi NNE 10.4 mph - N/A   Overcast
3:55 AM 37.4 °F 29.8 °F 33.8 °F 87% 30.17 in 10.0 mi NE 11.5 mph - N/A   Overcast
4:15 AM 37.4 °F 29.3 °F 32.0 °F 81% 30.15 in 10.0 mi NE 12.7 mph - N/A   Overcast
4:35 AM 37.4 °F 29.3 °F 32.0 °F 81% 30.15 in 10.0 mi NE 12.7 mph 18.4 mph N/A   Overcast
4:55 AM 37.4 °F 29.3 °F 32.0 °F 81% 30.14 in 10.0 mi NE 12.7 mph - N/A   Overcast
5:15 AM 37.4 °F 30.8 °F 32.0 °F 81% 30.16 in 10.0 mi ENE 9.2 mph 16.1 mph N/A   Overcast
5:35 AM 37.4 °F 29.8 °F 32.0 °F 81% 30.15 in 10.0 mi ENE 11.5 mph - N/A   Overcast
5:55 AM 39.2 °F 32.5 °F 32.0 °F 75% 30.15 in 10.0 mi ENE 10.4 mph 17.3 mph N/A   Overcast
6:15 AM 39.2 °F 33.0 °F 32.0 °F 75% 30.17 in 10.0 mi NE 9.2 mph 17.3 mph N/A   Overcast
6:35 AM 37.4 °F 29.8 °F 32.0 °F 81% 30.16 in 10.0 mi NE 11.5 mph - N/A   Overcast
6:55 AM 37.4 °F 29.8 °F 32.0 °F 81% 30.13 in 10.0 mi ENE 11.5 mph - N/A   Overcast
7:15 AM 39.2 °F 29.6 °F 32.0 °F 75% 30.08 in 10.0 mi ENE 19.6 mph - N/A   Overcast
7:35 AM 39.2 °F 31.6 °F 32.0 °F 75% 30.13 in 10.0 mi ENE 12.7 mph - N/A   Overcast
7:55 AM 39.2 °F 30.5 °F 32.0 °F 75% 30.11 in 10.0 mi ENE 16.1 mph - N/A   Overcast
8:15 AM 39.2 °F 32.0 °F 33.8 °F 81% 30.13 in 10.0 mi ENE 11.5 mph 17.3 mph N/A Rain Light Rain
8:35 AM 39.2 °F 35.0 °F 33.8 °F 81% 30.17 in 4.0 mi North 5.8 mph - N/A Rain Light Rain
9:15 AM 37.4 °F 29.3 °F 35.6 °F 93% 30.13 in 3.0 mi NE 12.7 mph - N/A Rain Rain
9:35 AM 37.4 °F 29.8 °F 37.4 °F 100% 30.12 in 3.0 mi NE 11.5 mph - N/A Rain Rain
9:55 AM 37.4 °F 28.2 °F 35.6 °F 93% 30.08 in 5.0 mi NE 16.1 mph - 0.18 in   Overcast
10:15 AM 37.4 °F 29.3 °F 35.6 °F 93% 30.11 in 4.0 mi ENE 12.7 mph 18.4 mph N/A   Overcast
10:35 AM 37.4 °F 26.1 °F 35.6 °F 93% 29.99 in 3.0 mi ENE 24.2 mph - N/A   Overcast
10:55 AM 37.4 °F 28.5 °F 37.4 °F 100% 30.06 in 8.0 mi ENE 15.0 mph 24.2 mph 0.06 in   Light Drizzle
11:15 AM 37.4 °F 27.8 °F 37.4 °F 100% 30.07 in 10.0 mi ENE 17.3 mph - N/A   Overcast
11:35 AM 37.4 °F 27.5 °F 37.4 °F 100% 30.06 in 10.0 mi ENE 18.4 mph 24.2 mph N/A   Overcast
11:55 AM 37.4 °F 28.2 °F 35.6 °F 93% 30.06 in 10.0 mi East 16.1 mph - N/A   Overcast
12:15 PM 37.4 °F 28.9 °F 37.4 °F 100% 30.03 in 10.0 mi ENE 13.8 mph 23.0 mph N/A   Overcast
12:35 PM 37.4 °F 28.5 °F 37.4 °F 100% 30.00 in 4.0 mi ENE 15.0 mph 21.9 mph N/A   Light Drizzle
12:55 PM 39.2 °F 30.8 °F 37.4 °F 93% 29.99 in 2.5 mi ENE 15.0 mph - 0.01 in   Light Drizzle
1:15 PM 39.2 °F 29.8 °F 37.4 °F 93% 29.99 in 1.8 mi ENE 18.4 mph 24.2 mph N/A   Light Drizzle
1:35 PM 37.4 °F 27.2 °F 37.4 °F 100% 29.97 in 9.0 mi ENE 19.6 mph 25.3 mph N/A   Overcast
1:55 PM 37.4 °F 28.5 °F 37.4 °F 100% 29.98 in 10.0 mi ENE 15.0 mph - N/A   Overcast
2:15 PM 39.2 °F 30.5 °F 37.4 °F 93% 29.97 in 10.0 mi ENE 16.1 mph 23.0 mph N/A   Overcast
2:35 PM 39.2 °F 30.5 °F 37.4 °F 93% 29.96 in 10.0 mi ENE 16.1 mph 21.9 mph N/A   Overcast
2:55 PM 39.2 °F 30.2 °F 37.4 °F 93% 29.93 in 1.8 mi ENE 17.3 mph - N/A   Overcast
3:35 PM 39.2 °F 31.2 °F 39.2 °F 100% 29.95 in 0.8 mi ENE 13.8 mph 20.7 mph N/A   Light Drizzle
3:55 PM 39.2 °F 29.8 °F 39.2 °F 100% 29.92 in 1.2 mi ENE 18.4 mph 24.2 mph N/A   Overcast
4:15 PM 37.4 °F 27.8 °F 37.4 °F 100% 29.90 in 1.0 mi ENE 17.3 mph 23.0 mph N/A   Overcast
4:35 PM 39.2 °F 30.5 °F 39.2 °F 100% 29.91 in 1.0 mi ENE 16.1 mph 23.0 mph N/A   Overcast
4:55 PM 39.2 °F 29.6 °F 39.2 °F 100% 29.88 in 0.8 mi ENE 19.6 mph - 0.01 in   Light Drizzle
5:15 PM 39.2 °F 30.5 °F 39.2 °F 100% 29.87 in 0.8 mi NE 16.1 mph 26.5 mph N/A   Light Drizzle
5:35 PM 39.2 °F 29.8 °F 39.2 °F 100% 29.85 in 0.8 mi NE 18.4 mph - N/A   Light Drizzle
5:55 PM 37.4 °F 28.2 °F 37.4 °F 100% 29.84 in 1.2 mi NE 16.1 mph 23.0 mph N/A   Light Drizzle
6:15 PM 37.4 °F 28.5 °F 37.4 °F 100% 29.85 in 1.8 mi NE 15.0 mph 23.0 mph N/A   Light Drizzle
6:35 PM 37.4 °F 28.5 °F 37.4 °F 100% 29.85 in 0.8 mi NE 15.0 mph - N/A   Overcast
6:55 PM 37.4 °F 29.8 °F 37.4 °F 100% 29.88 in 1.0 mi NE 11.5 mph 18.4 mph 0.11 in Rain Rain
7:15 PM 39.2 °F 33.6 °F 39.2 °F 100% 29.94 in 1.8 mi North 8.1 mph - N/A Rain Heavy Rain
7:35 PM 37.4 °F 28.9 °F 37.4 °F 100% 29.90 in 2.0 mi NE 13.8 mph - N/A Rain Rain
7:55 PM 37.4 °F 28.5 °F 37.4 °F 100% 29.88 in 3.0 mi NE 15.0 mph - 0.24 in Rain Rain
8:15 PM 37.4 °F 25.9 °F 37.4 °F 100% 29.75 in 4.0 mi NE 25.3 mph 33.4 mph N/A Rain Light Rain
8:35 PM 37.4 °F 28.2 °F 37.4 °F 100% 29.85 in 9.0 mi NNE 16.1 mph 24.2 mph N/A Rain Light Rain
8:55 PM 37.4 °F 26.4 °F 37.4 °F 100% 29.82 in 10.0 mi NNE 23.0 mph - 0.04 in   Overcast
9:15 PM 37.4 °F 27.8 °F 37.4 °F 100% 29.82 in 10.0 mi NNE 17.3 mph 25.3 mph N/A   Overcast
9:55 PM 37.4 °F 28.5 °F 37.4 °F 100% 29.84 in 10.0 mi NNE 15.0 mph 20.7 mph N/A   Overcast
10:15 PM 37.4 °F 28.2 °F 37.4 °F 100% 29.83 in 10.0 mi NNE 16.1 mph - N/A   Overcast
10:35 PM 37.4 °F 28.2 °F 37.4 °F 100% 29.81 in 9.0 mi NNE 16.1 mph 21.9 mph N/A Rain Light Rain
10:55 PM 37.4 °F 29.3 °F 37.4 °F 100% 29.83 in 2.0 mi NNE 12.7 mph 18.4 mph 0.01 in Rain Rain
11:15 PM 35.6 °F 27.1 °F 35.6 °F 100% 29.81 in 2.0 mi North 12.7 mph - N/A Rain Rain
11:35 PM 35.6 °F 26.6 °F 35.6 °F 100% 29.81 in 2.0 mi North 13.8 mph 23.0 mph N/A   Overcast
11:55 PM 35.6 °F 26.2 °F 35.6 °F 100% 29.80 in 3.0 mi North 15.0 mph - 0.05 in   Overcast